Location: Edisto_Beach
(32.4790°N, 80.3350°W)
Time: 19:38:43
(UTC-05:00)

Amateur Radio Satellites - All Passes

Search period start: 20 February 2017 19:08
Search period end: 21 February 2017 19:08
Location: Edisto_Beach, 32.4790°N, 80.3350°W

Satellite Date Start Highest point End Downlink Frequencies (MHz)
Time Altitude Azimuth
CUBEBUG 2 20 Feb 19:09:46 19:13:23 27° 71° (ENE) 19:17:06 437.445
SEEDS 20 Feb 19:19:24 19:23:33 56° 76° (ENE) 19:27:42 437.485
AAUSAT CUBESAT 2 20 Feb 19:25:30 19:29:07 29° 73° (ENE) 19:32:45 437.432
STRAND 1 20 Feb 19:27:39 19:32:43 56° 100° (E) 19:37:45 437.568
XW-2A 20 Feb 19:30:38 19:33:35 28° 262° (W) 19:36:33 145.665 - 145.685
CUTE 1.7 + AOD 2 20 Feb 19:47:31 19:51:31 39° 262° (W) 19:55:34 437.475
AO-73 20 Feb 19:47:48 19:51:16 23° 70° (ENE) 19:54:48 145.935
UWE-3 20 Feb 19:57:54 20:02:10 61° 76° (ENE) 20:06:35 435.000/436.395/437.385
Oscar 11 20 Feb 20:01:10 20:04:56 29° 72° (ENE) 20:08:42 .
DELFI C3 20 Feb 20:14:23 20:14:57 10° 68° (ENE) 20:15:30 145.870
HO-68 20 Feb 20:17:53 20:24:09 32° 262° (W) 20:30:26 435.675
ZACube-1 20 Feb 20:31:09 20:35:30 88° 73° (ENE) 20:39:59 437.345
CUBEBUG 2 20 Feb 20:46:45 20:49:56 20° 266° (W) 20:53:14 437.445
AAUSAT CUBESAT 2 20 Feb 21:01:53 21:04:34 17° 265° (W) 21:07:16 437.432
RS-15 20 Feb 21:04:23 21:12:58 21° 325° (NW) 21:21:46 29.354- 29.394
STRAND 1 20 Feb 21:08:40 21:11:21 14° 295° (WNW) 21:14:03 437.568
YUBILEINY 20 Feb 21:10:24 21:17:12 25° 72° (ENE) 21:23:57 435.215
AO-73 20 Feb 21:23:50 21:27:21 24° 265° (W) 21:30:57 145.935
FO-29 20 Feb 21:25:34 21:26:19 10° 86° (E) 21:27:04 435.910
PRISM 20 Feb 21:35:49 21:39:49 55° 101° (E) 21:43:48 437.425
Oscar 11 20 Feb 21:37:59 21:41:01 19° 265° (W) 21:44:05 .
UNISAT 6 20 Feb 21:44:32 21:48:31 27° 96° (E) 21:52:27 437.425
DELFI C3 20 Feb 21:45:28 21:49:17 45° 261° (W) 21:53:07 145.870
TIGRISAT 20 Feb 21:46:32 21:50:29 26° 96° (E) 21:54:22 435.000
JUGNU 20 Feb 22:36:49 22:40:14 16° 166° (SSE) 22:43:40 437.505
ESTCUBE 1 20 Feb 22:46:16 22:50:35 46° 74° (ENE) 22:54:56 437.505/2401.250
SPROUT 20 Feb 22:49:33 22:50:27 11° 66° (ENE) 22:51:20 437.525
SO-50 20 Feb 22:50:38 22:55:03 41° 113° (ESE) 22:59:25 436.795
FO-29 20 Feb 23:04:41 23:12:25 79° 102° (ESE) 23:19:24 435.910
YUBILEINY 20 Feb 23:05:55 23:14:24 59° 269° (W) 23:22:51 435.215
UNISAT 6 20 Feb 23:21:17 23:25:02 24° 290° (WNW) 23:28:46 437.425
50 SAT 20 Feb 23:21:48 23:24:24 20° 72° (ENE) 23:27:01 437.505
TIGRISAT 20 Feb 23:23:12 23:27:00 25° 290° (WNW) 23:30:46 435.000
RS-15 20 Feb 23:30:58 23:32:59 10° 3° (N) 23:35:01 29.354- 29.394
VELOX 1 20 Feb 23:34:28 23:38:43 52° 75° (ENE) 23:42:59 145.980
DX 1 20 Feb 23:44:00 23:47:38 27° 71° (ENE) 23:51:19 434.975-435.025
DUCHIFAT 1 20 Feb 23:44:08 23:48:07 38° 99° (E) 23:52:04 145.980
O/OREOS (USA 219) 20 Feb 23:48:23 23:52:50 77° 290° (WNW) 23:57:19 437.305
EO-79 20 Feb 23:48:35 23:52:47 54° 100° (E) 23:56:58 145.935-145.965
AIST 2D 20 Feb 23:53:25 23:56:56 59° 284° (WNW) 00:00:25 435.315
POLYITAN 1 21 Feb 00:04:21 00:08:40 87° 108° (ESE) 00:12:57 437.675
UKube-1 21 Feb 00:06:19 00:10:13 35° 72° (ENE) 00:14:08 .
QB50P2 21 Feb 00:07:06 00:11:23 80° 285° (WNW) 00:15:40 145.880/145.840
NANOSAT C BR1 21 Feb 00:08:51 00:13:08 90° 96° (E) 00:17:24 145.865
SPROUT 21 Feb 00:21:44 00:25:50 51° 260° (W) 00:30:00 437.525
JUGNU 21 Feb 00:24:04 00:28:37 23° 176° (S) 00:33:11 437.505
ESTCUBE 1 21 Feb 00:25:41 00:27:34 12° 267° (W) 00:29:27 437.505/2401.250
SO-50 21 Feb 00:32:18 00:35:38 19° 308° (NW) 00:38:57 436.795
FO-29 21 Feb 00:51:35 00:56:22 18° 300° (WNW) 01:00:59 435.910
50 SAT 21 Feb 00:55:04 00:57:25 17° 264° (W) 00:59:46 437.505
Oscar 19 21 Feb 01:01:37 01:05:50 26° 97° (E) 01:10:02 437.125/150
BUGSAT 1 21 Feb 01:02:09 01:06:22 71° 284° (WNW) 01:10:36 437.445
Gurwin Techsat 1B 21 Feb 01:06:28 01:09:25 15° 93° (E) 01:12:21 435.225
SRMSAT 21 Feb 01:14:20 01:17:59 17° 167° (SSE) 01:21:39 437.500
VELOX 1 21 Feb 01:14:46 01:15:24 10° 267° (W) 01:16:01 145.980
DX 1 21 Feb 01:20:38 01:23:46 20° 264° (W) 01:26:55 434.975-435.025
ITUPSAT 1 21 Feb 01:21:08 01:23:53 15° 66° (ENE) 01:26:37 437.325
DUCHIFAT 1 21 Feb 01:21:08 01:23:24 14° 292° (WNW) 01:25:41 145.980
EO-79 21 Feb 01:27:19 01:28:01 10° 294° (WNW) 01:28:43 145.935-145.965
BEESAT 21 Feb 01:30:28 01:33:53 20° 68° (ENE) 01:37:18 436.000
PCSat 21 Feb 01:38:13 01:41:05 14° 51° (NE) 01:43:57 145.827
RS-15 21 Feb 01:42:53 01:52:28 25° 39° (NE) 02:01:44 29.354- 29.394
UKube-1 21 Feb 01:43:50 01:46:19 15° 265° (W) 01:48:47 .
JUGNU 21 Feb 02:12:35 02:17:03 22° 186° (S) 02:21:32 437.505
AO-7 21 Feb 02:14:33 02:16:56 11° 92° (E) 02:19:18 .
MOZHAYETS 4 21 Feb 02:35:33 02:39:38 31° 72° (ENE) 02:43:44
Oscar 19 21 Feb 02:40:41 02:45:04 29° 290° (WNW) 02:49:25 437.125/150
Gurwin Techsat 1B 21 Feb 02:44:26 02:49:35 53° 287° (WNW) 02:54:44 435.225
ITUPSAT 1 21 Feb 02:56:40 03:01:16 46° 260° (W) 03:05:53 437.325
SRMSAT 21 Feb 03:01:53 03:06:33 24° 176° (S) 03:11:13 437.500
ITAMSAT 1 21 Feb 03:02:53 03:07:42 37° 99° (E) 03:12:31 435.822/435.867
BEESAT 21 Feb 03:07:02 03:11:21 34° 261° (W) 03:15:43 436.000
PCSat 21 Feb 03:19:35 03:25:00 71° 247° (WSW) 03:30:22 145.827
CUBESAT XI-V 21 Feb 03:22:59 03:25:37 15° 68° (ENE) 03:28:14 437.345
KKS-1 21 Feb 03:42:56 03:47:08 44° 73° (ENE) 03:51:20 437.445
RS-15 21 Feb 03:54:34 04:06:55 86° 63° (ENE) 04:18:37 29.354- 29.394
AO-7 21 Feb 04:02:16 04:10:37 81° 106° (ESE) 04:18:54 .
JUGNU 21 Feb 04:02:33 04:05:26 14° 196° (SSW) 04:08:20 437.505
MOZHAYETS 4 21 Feb 04:13:26 04:16:46 20° 265° (W) 04:20:08
STARS 21 Feb 04:30:52 04:35:10 70° 75° (ENE) 04:39:31 437.465
AO-85 21 Feb 04:33:48 04:37:49 27° 112° (ESE) 04:41:35 145.980
ITAMSAT 1 21 Feb 04:42:58 04:46:52 22° 293° (WNW) 04:50:46 435.822/435.867
SRMSAT 21 Feb 04:50:39 04:55:09 22° 187° (S) 04:59:39 437.500
CUBESAT XI-V 21 Feb 04:58:07 05:02:34 44° 261° (W) 05:07:01 437.345
M-CUBED/EXP-1 PRIME 21 Feb 05:04:00 05:07:13 38° 255° (WSW) 05:10:20 437.505
CUTE-I 21 Feb 05:17:58 05:18:44 10° 92° (E) 05:19:29 437.470
KKS-1 21 Feb 05:22:01 05:23:51 12° 267° (W) 05:25:40 437.445
XW-2C 21 Feb 05:31:43 05:33:29 13° 93° (E) 05:35:16 145.795 - 145.815
LilacSat-2 21 Feb 05:42:20 05:45:07 19° 95° (E) 05:47:53 437.200
AO-7 21 Feb 05:56:59 06:02:24 19° 303° (WNW) 06:07:48 .
NUDT-PHONESAT 21 Feb 06:00:09 06:03:17 24° 97° (E) 06:06:22 437.300
RS-15 21 Feb 06:09:55 06:17:42 20° 261° (W) 06:25:18 29.354- 29.394
AO-85 21 Feb 06:14:22 06:18:09 25° 304° (NW) 06:21:43 145.980
STRAND 1 21 Feb 06:38:53 06:43:48 49° 73° (ENE) 06:48:45 437.568
DOVE 4 21 Feb 06:40:27 06:45:04 72° 284° (WNW) 06:50:01 437.250
SRMSAT 21 Feb 06:40:54 06:43:42 13° 196° (SSW) 06:46:28 437.500
XW-2F 21 Feb 06:49:07 06:52:49 51° 285° (WNW) 06:56:29 145.980 - 146.000
XW-2D 21 Feb 06:50:45 06:54:26 46° 285° (WNW) 06:58:04 145.860 - 145.880
KAITUO 1B 21 Feb 06:52:34 06:56:16 56° 284° (WNW) 06:59:57 145.475/437.950
CUTE-I 21 Feb 06:53:49 06:59:12 74° 285° (WNW) 07:04:32 437.470
XW-2B 21 Feb 06:55:44 06:59:21 40° 285° (WNW) 07:02:55 145.730 - 145.750
XW-2A 21 Feb 06:57:11 06:59:52 21° 96° (E) 07:02:32 145.665 - 145.685
BEESAT 3 21 Feb 07:02:00 07:05:46 53° 114° (ESE) 07:09:36 437.485
XW-2C 21 Feb 07:04:20 07:07:45 31° 286° (WNW) 07:11:07 145.795 - 145.815
SEEDS 21 Feb 07:09:35 07:11:29 13° 93° (E) 07:13:22 437.485
LilacSat-2 21 Feb 07:16:18 07:19:17 21° 289° (WNW) 07:22:14 437.200
SO-50 21 Feb 07:28:19 07:29:53 12° 48° (NE) 07:31:27 436.795
BEESAT 2 21 Feb 07:29:34 07:33:14 41° 114° (ESE) 07:36:59 435.950
NUDT-PHONESAT 21 Feb 07:34:38 07:36:59 16° 290° (WNW) 07:39:19 437.300
CUTE 1.7 + AOD 2 21 Feb 07:36:42 07:40:47 47° 99° (E) 07:44:49 437.475
HO-68 21 Feb 07:49:27 07:56:33 65° 103° (ESE) 08:03:38 435.675
UWE-3 21 Feb 07:52:55 07:56:16 19° 94° (E) 07:59:32 435.000/436.395/437.385
ISS 21 Feb 08:14:46 08:17:05 18° 128° (SE) 08:19:24 437.550
STRAND 1 21 Feb 08:20:18 08:23:10 15° 266° (W) 08:26:03 437.568
PRISM 21 Feb 08:21:15 08:24:19 21° 71° (ENE) 08:27:25 437.425
ZACube-1 21 Feb 08:24:37 08:28:22 25° 96° (E) 08:32:02 437.345
XW-2A 21 Feb 08:30:19 08:32:26 15° 289° (WNW) 08:34:32 145.665 - 145.685
UNISAT 6 21 Feb 08:40:20 08:42:31 14° 67° (ENE) 08:44:43 437.425
CUBEBUG 2 21 Feb 08:40:28 08:45:13 71° 284° (WNW) 08:49:55 437.445
TIGRISAT 21 Feb 08:42:17 08:44:21 13° 66° (ENE) 08:46:25 435.000
BEESAT 3 21 Feb 08:42:35 08:43:40 11° 310° (NW) 08:44:45 437.485
SEEDS 21 Feb 08:43:25 08:47:16 37° 286° (WNW) 08:51:06 437.485
AAUSAT CUBESAT 2 21 Feb 08:46:47 08:50:54 76° 283° (WNW) 08:54:58 437.432
Tancredo 1 21 Feb 08:50:34 08:53:44 52° 133° (SE) 08:56:55 437.200
SO-50 21 Feb 09:06:19 09:10:47 68° 243° (WSW) 09:15:12 436.795
BEESAT 2 21 Feb 09:09:09 09:11:11 14° 309° (NW) 09:13:16 435.950
FO-29 21 Feb 09:12:09 09:17:17 23° 63° (ENE) 09:22:46 435.910
CUTE 1.7 + AOD 2 21 Feb 09:14:51 09:16:08 11° 293° (WNW) 09:17:25 437.475
AO-73 21 Feb 09:15:17 09:19:52 88° 281° (W) 09:24:20 145.935
DELFI C3 21 Feb 09:27:18 09:30:43 28° 97° (E) 09:34:07 145.870
Oscar 11 21 Feb 09:28:12 09:32:30 71° 283° (WNW) 09:36:47 .
UWE-3 21 Feb 09:28:32 09:32:41 33° 288° (WNW) 09:36:48 435.000/436.395/437.385
HO-68 21 Feb 09:38:41 09:43:36 20° 298° (WNW) 09:48:32 435.675
ISS 21 Feb 09:50:25 09:53:22 30° 321° (NW) 09:56:20 437.550
PRISM 21 Feb 09:56:12 09:59:28 23° 263° (W) 10:02:43 437.425
ZACube-1 21 Feb 10:00:49 10:04:29 24° 289° (WNW) 10:08:06 437.345
O/OREOS (USA 219) 21 Feb 10:02:50 10:07:25 87° 256° (WSW) 10:12:01 437.305
YUBILEINY 21 Feb 10:05:13 10:12:48 34° 86° (E) 10:20:22 435.215
UNISAT 6 21 Feb 10:14:33 10:18:45 44° 261° (W) 10:23:05 437.425
TIGRISAT 21 Feb 10:16:19 10:20:32 46° 261° (W) 10:24:53 435.000
AIST 2D 21 Feb 10:23:52 10:26:36 21° 72° (ENE) 10:29:20 435.315
Tancredo 1 21 Feb 10:28:25 10:30:15 14° 328° (NNW) 10:32:04 437.200
DUCHIFAT 1 21 Feb 10:32:34 10:35:06 16° 69° (ENE) 10:37:38 145.980
EO-79 21 Feb 10:37:02 10:40:15 22° 70° (ENE) 10:43:30 145.935-145.965
ESTCUBE 1 21 Feb 10:44:51 10:47:11 14° 94° (E) 10:49:31 437.505/2401.250
POLYITAN 1 21 Feb 10:52:23 10:56:10 34° 73° (ENE) 11:00:01 437.675
QB50P2 21 Feb 10:55:00 10:58:55 39° 73° (ENE) 11:02:53 145.880/145.840
FO-29 21 Feb 10:55:01 11:01:33 59° 260° (W) 11:08:55 435.910
NANOSAT C BR1 21 Feb 10:56:23 11:00:09 34° 73° (ENE) 11:03:59 145.865
DELFI C3 21 Feb 11:02:55 11:05:14 15° 290° (WNW) 11:07:33 145.870
VELOX 1 21 Feb 11:30:30 11:32:51 14° 94° (E) 11:35:10 145.980
BUGSAT 1 21 Feb 11:47:16 11:51:00 39° 74° (ENE) 11:54:48 437.445
AIST 2D 21 Feb 11:57:32 11:59:44 16° 265° (W) 12:01:57 435.315
YUBILEINY 21 Feb 12:00:57 12:09:14 44° 282° (WNW) 12:17:33 435.215
DUCHIFAT 1 21 Feb 12:06:42 12:10:27 32° 262° (W) 12:14:15 145.980
SPROUT 21 Feb 12:11:59 12:15:58 36° 98° (E) 12:19:55 437.525
EO-79 21 Feb 12:12:29 12:15:52 23° 264° (W) 12:19:15 145.935-145.965
Oscar 19 21 Feb 12:14:11 12:18:18 24° 69° (ENE) 12:22:24 437.125/150
ESTCUBE 1 21 Feb 12:19:55 12:24:06 40° 287° (WNW) 12:28:16 437.505/2401.250
50 SAT 21 Feb 12:23:16 12:26:32 40° 99° (E) 12:29:48 437.505
Gurwin Techsat 1B 21 Feb 12:23:21 12:26:31 16° 66° (ENE) 12:29:42 435.225
POLYITAN 1 21 Feb 12:29:36 12:32:01 15° 266° (W) 12:34:27 437.675
QB50P2 21 Feb 12:32:58 12:34:50 13° 267° (W) 12:36:42 145.880/145.840
NANOSAT C BR1 21 Feb 12:33:36 12:35:56 15° 266° (W) 12:38:17 145.865
VELOX 1 21 Feb 13:05:17 13:09:23 39° 287° (WNW) 13:13:29 145.980
AO-7 21 Feb 13:09:14 13:12:40 13° 53° (NE) 13:16:05 .
DX 1 21 Feb 13:11:47 13:16:08 82° 285° (WNW) 13:20:30 434.975-435.025
BUGSAT 1 21 Feb 13:25:12 13:26:31 11° 267° (W) 13:27:50 437.445
UKube-1 21 Feb 13:33:13 13:37:29 64° 285° (WNW) 13:41:44 .
SPROUT 21 Feb 13:49:02 13:51:32 15° 292° (WNW) 13:54:02 437.525
Oscar 19 21 Feb 13:52:50 13:57:24 32° 262° (W) 14:01:58 437.125/150
Gurwin Techsat 1B 21 Feb 14:00:50 14:05:59 52° 260° (W) 14:11:10 435.225
ITAMSAT 1 21 Feb 14:16:21 14:21:03 36° 71° (ENE) 14:25:47 435.822/435.867
MOZHAYETS 4 21 Feb 14:38:23 14:38:39 10° 92° (E) 14:38:54
AO-85 21 Feb 14:48:56 14:52:50 75° 62° (ENE) 14:56:51 145.980
AO-7 21 Feb 14:55:40 15:04:00 74° 71° (ENE) 15:12:20 .
ITUPSAT 1 21 Feb 15:01:29 15:06:16 65° 102° (ESE) 15:11:00 437.325
BEESAT 21 Feb 15:11:07 15:15:55 86° 104° (ESE) 15:20:41 436.000
KKS-1 21 Feb 15:40:14 15:42:06 12° 94° (E) 15:43:58 437.445
ITAMSAT 1 21 Feb 15:56:39 16:00:32 21° 264° (W) 16:04:28 435.822/435.867
RS-15 21 Feb 16:04:11 16:11:10 18° 99° (E) 16:18:17 29.354- 29.394
MOZHAYETS 4 21 Feb 16:11:34 16:16:05 57° 285° (WNW) 16:20:34
PCSat 21 Feb 16:14:03 16:18:38 29° 107° (ESE) 16:23:15 145.827
ISS 21 Feb 16:21:35 16:24:31 30° 39° (NE) 16:27:27 437.550
STARS 21 Feb 16:25:41 16:28:44 18° 95° (E) 16:31:47 437.465
CUTE-I 21 Feb 16:34:54 16:36:53 12° 63° (ENE) 16:38:51 437.470
ITUPSAT 1 21 Feb 16:42:17 16:43:28 11° 296° (WNW) 16:44:38 437.325
M-CUBED/EXP-1 PRIME 21 Feb 16:46:40 16:49:03 16° 101° (ESE) 16:51:31 437.505
AO-7 21 Feb 16:51:43 16:57:16 19° 265° (W) 17:02:52 .
Tancredo 1 21 Feb 16:57:19 17:00:32 84° 43° (NE) 17:03:43 437.200
CUBESAT XI-V 21 Feb 16:58:56 17:03:30 65° 101° (E) 17:08:03 437.345
BEESAT 3 21 Feb 17:00:16 17:04:16 75° 244° (WSW) 17:08:13 437.485
KKS-1 21 Feb 17:14:34 17:18:50 45° 286° (WNW) 17:23:05 437.445
XW-2F 21 Feb 17:25:22 17:28:50 34° 74° (ENE) 17:32:20 145.980 - 146.000
XW-2D 21 Feb 17:27:11 17:30:45 38° 74° (ENE) 17:34:21 145.860 - 145.880
KAITUO 1B 21 Feb 17:28:07 17:31:27 30° 73° (ENE) 17:34:49 145.475/437.950
BEESAT 2 21 Feb 17:28:42 17:32:46 88° 62° (ENE) 17:36:47 435.950
XW-2B 21 Feb 17:32:02 17:35:41 43° 75° (ENE) 17:39:21 145.730 - 145.750
XW-2C 21 Feb 17:40:21 17:44:06 58° 76° (ENE) 17:47:54 145.795 - 145.815
DOVE 4 21 Feb 17:41:46 17:45:55 65° 76° (ENE) 17:50:01 437.250
LilacSat-2 21 Feb 17:52:23 17:56:15 89° 257° (WSW) 18:00:09 437.200
PCSat 21 Feb 17:57:09 18:01:53 31° 302° (WNW) 18:06:40 145.827
ISS 21 Feb 17:58:32 18:00:48 18° 233° (SW) 18:03:03 437.550
STARS 21 Feb 18:01:10 18:05:04 31° 288° (WNW) 18:08:57 437.465
NUDT-PHONESAT 21 Feb 18:07:56 18:11:39 71° 259° (W) 18:15:25 437.300
RS-15 21 Feb 18:10:00 18:21:49 88° 115° (ESE) 18:34:12 29.354- 29.394
CUTE-I 21 Feb 18:10:57 18:16:14 71° 258° (WSW) 18:21:35 437.470
HO-68 21 Feb 18:13:41 18:19:44 30° 65° (ENE) 18:25:45 435.675
M-CUBED/EXP-1 PRIME 21 Feb 18:20:12 18:23:27 28° 291° (WNW) 18:26:54 437.505
CUTE 1.7 + AOD 2 21 Feb 18:25:29 18:28:32 19° 70° (ENE) 18:31:35 437.475
STRAND 1 21 Feb 18:54:34 18:58:45 25° 96° (E) 19:02:54 437.568
XW-2A 21 Feb 18:55:50 18:59:11 78° 77° (ENE) 19:02:34 145.665 - 145.685
XW-2F 21 Feb 19:01:37 19:03:03 12° 267° (W) 19:04:30 145.980 - 146.000
KAITUO 1B 21 Feb 19:03:42 19:05:30 13° 266° (W) 19:07:19 145.475/437.950
XW-2D 21 Feb 19:04:24 19:05:04 10° 267° (W) 19:05:44 145.860 - 145.880
